Location: Steinbach
(49.5170°N, 96.6830°W)
Time: 12:00:12
(UTC-05:00)

Daily predictions for brighter satellites

Satellite Brightness Start Highest point End
(mag) Time Altitude Azimuth Time Altitude Azimuth Time Altitude Azimuth
Cosmos 676 Rocket 4.3 21:50:12 10° NNW 21:55:18 54° ENE 22:00:24 10° SE
Cosmos 1674 Rocket 3.6 21:51:19 10° N 21:55:49 77° E 22:00:16 10° SSE
Meteor 2-3 Rocket 4.1 21:52:02 10° SSW 21:57:39 73° WNW 22:03:16 10° N
Cosmos 1825 3.6 21:55:32 10° SE 21:58:32 22° E 22:01:33 10° NE
Meteor 1-27 Rocket 3.9 21:54:36 10° N 22:00:11 61° ENE 22:05:39 10° SSE
Cosmos 1340 Rocket 3.4 21:56:57 10° SSW 22:00:55 64° WNW 22:04:57 10° N
Cosmos 2056 Rocket 3.6 21:56:31 10° S 22:01:33 55° ESE 22:06:33 10° NNE
Cosmos 1844 Rocket 3.2 21:57:32 10° S 22:02:43 38° ESE 22:07:54 10° NE
Cosmos 1954 Rocket 4.4 21:57:56 10° NNW 22:03:00 50° ENE 22:08:04 10° SE
Cosmos 1782 2.8 21:59:00 10° N 22:03:03 89° E 22:07:05 10° S
Cosmos 1371 Rocket 4.0 21:58:12 10° SSW 22:03:30 76° ESE 22:08:48 10° NNE
Cosmos 1174 3.6 22:00:07 10° NNW 22:03:40 56° NE 22:06:42 10° SE
Cosmos 2082 Rocket 3.7 21:58:52 10° NNW 22:03:42 27° NE 22:08:28 10° E
Cosmos 1939 Rocket 3.5 22:00:07 10° S 22:03:54 55° W 22:07:47 10° NNW
Cosmos 1461 3.1 22:00:08 10° SW 22:04:47 87° SE 22:09:19 10° NE
COSMOS 2487 3.5 22:07:04 10° N 22:10:27 35° ENE 22:13:44 10° SE
SL-27 R/B 2.9 22:08:25 10° NNW 22:12:05 64° WSW 22:15:41 10° S
Cosmos 2263 Rocket 3.4 22:12:02 10° SW 22:17:31 49° NW 22:23:01 10° NNE
Coronas F rocket 2.6 22:15:50 10° SSW 22:18:23 41° WNW 22:20:57 10° N
YAOGAN 6 2.5 22:15:06 10° SSE 22:18:36 83° ENE 22:22:09 10° NNW
Cosmos 1408 3.3 22:15:51 10° SSE 22:19:13 35° E 22:22:34 10° NNE
COS B Rocket 3.4 22:15:02 10° N 22:19:23 78° E 22:23:25 10° S
CENTAUR R/B 3.9 22:14:08 10° NW 22:21:26 45° WSW 22:29:08 10° S
SL-8 R/B 4.3 22:17:34 10° SW 22:21:56 35° SSE 22:26:20 10° E
MetOp-A 4.3 22:17:36 10° SSE 22:22:57 79° WSW 22:28:20 10° NNW
deb Chang Zheng 4 3.9 22:18:37 10° N 22:23:00 72° WNW 22:27:25 10° SSW
Cosmos 1975 Rocket 3.4 22:19:15 10° N 22:23:29 50° ENE 22:27:24 12° SSE
Cosmos 1606 2.8 22:21:09 10° N 22:25:07 85° W 22:29:03 10° S
Cosmos 2154 Rocket 4.0 22:20:57 10° S 22:27:06 70° E 22:33:17 10° NNE
USA 229 DEB 4.5 22:21:37 10° NW 22:28:27 48° NE 22:35:21 10° ESE
USA 229 4.5 22:21:42 10° NW 22:28:32 48° NE 22:35:26 10° ESE
SL-08 RB Rocket 3.9 22:24:57 11° SSE 22:29:20 62° ENE 22:33:56 10° N
Okean 3 3.5 22:25:54 10° N 22:30:13 69° E 22:34:14 11° SSE
NOSS 2-2 (D) 3.6 22:29:45 10° SSW 22:33:57 72° SE 22:39:03 10° NE
NOAA 11 4.2 22:28:54 10° SSE 22:34:23 80° ENE 22:39:56 10° NNW
Cosmos 1242 Rocket 3.0 22:31:14 10° N 22:34:45 45° ENE 22:37:28 16° SE
Cosmos 1892 4.5 22:33:27 10° SW 22:36:59 34° WNW 22:40:34 10° N
Cosmos 1908 Rocket 3.5 22:32:44 10° S 22:37:07 81° E 22:41:35 10° NNE
USA 245 3.1 22:35:53 12° S 22:38:42 74° W 22:42:33 10° NNW
Cosmos 1378 Rocket 3.7 22:36:29 10° NNW 22:40:48 74° W 22:45:05 10° S
Cosmos 1624 Rocket 4.4 22:35:51 10° SSW 22:41:06 69° WNW 22:46:27 10° NNE
H-2A R/B 2.5 22:36:42 13° SE 22:41:19 53° ENE 22:46:30 10° N
Envisat 4.4 22:36:59 10° SSW 22:41:37 35° W 22:46:16 10° NNW
Cosmos 1733 Rocket 4.3 22:39:06 10° SSW 22:43:18 43° WNW 22:47:31 10° N
NOSS 2-2 (C) 3.7 22:44:24 10° SW 22:48:39 88° NW 22:53:50 10° NE
Cosmos 489 Rocket 4.5 22:47:39 10° NNW 22:53:56 88° WSW 22:59:04 16° SSE
SPOT 1/Viking Rocket 4.0 22:51:13 10° S 22:56:20 60° WSW 23:01:31 10° NNW
Cosmos 1238 Rocket 3.2 22:55:28 10° NNW 22:58:21 43° W 23:01:14 12° SSW
BREEZE-M DEB (TANK) 1.2 22:57:51 10° WSW 22:59:54 77° SSE 23:03:21 10° E
Cosmos 2366 rocket 4.4 22:56:09 16° SSE 23:00:55 45° E 23:06:55 10° NNE
Landsat 7 3.8 23:00:35 17° SSE 23:04:19 88° WSW 23:09:07 10° NNW
SAR-Lupe-2 4.3 23:02:28 22° SE 23:04:22 41° ENE 23:07:46 10° N
Meteor 1-14 Rocket 4.5 23:00:06 15° SSE 23:04:37 51° E 23:10:02 10° NNE
Cosmos 1452 Rocket 3.5 22:59:34 10° SSW 23:04:50 83° ESE 23:10:09 10° NNE
NOSS 2-2 (E) 4.3 23:03:37 10° SW 23:07:58 63° NW 23:13:21 10° NE
ASTEX 1 4.3 23:05:31 10° NNE 23:09:56 32° E 23:12:26 21° SE
Cosmos 2084 3.7 23:08:44 17° S 23:11:12 36° SE 23:14:45 10° ENE
Cosmos 614 Rocket 3.9 23:07:56 10° NNW 23:13:05 83° ENE 23:16:24 22° SSE
Cosmos 1140 Rocket 3.6 23:08:52 10° NNW 23:13:59 68° WSW 23:17:37 19° S
Cosmos 1862 4.3 23:10:23 10° SSW 23:14:20 48° WNW 23:18:18 10° N
Intercosmos 25 2.9 23:11:43 15° S 23:14:44 87° W 23:17:55 10° N
Spot 4 3.9 23:13:28 22° SSE 23:16:38 69° ENE 23:21:29 10° N
Terra 1.8 23:16:52 21° SSE 23:20:04 88° WSW 23:24:53 10° NNW
DMSP B5D2-2 4.2 23:15:18 10° NNE 23:20:27 57° E 23:24:02 20° S
Cosmos 2218 Rocket 4.0 23:17:25 15° S 23:22:48 73° E 23:29:13 10° NNE
ATLAS 5 CENTAUR R/B 4.3 23:19:02 10° WNW 23:23:06 19° WSW 23:27:19 10° SSW
BREEZE-M DEB (TANK) 3.6 23:19:58 10° WSW 23:23:22 85° S 23:34:21 10° E
BREEZE-M DEB (TANK) 4.0 23:14:03 10° WNW 23:24:09 36° SW 23:26:27 21° S
Okean 2 Rocket 3.4 23:20:05 11° SSW 23:24:21 67° WNW 23:28:47 10° N
ARGOS 4.2 23:20:05 10° SSW 23:25:02 41° W 23:30:05 10° NNW
Okean 1 Rocket 4.4 23:24:32 21° ESE 23:25:59 25° E 23:29:36 10° NNE
CZ-4B R/B 4.2 23:23:29 10° N 23:28:24 54° WNW 23:33:10 10° SW
AVUM R/B 4.4 23:26:24 10° NNW 23:29:42 37° NE 23:31:17 24° ESE
CZ-4C R/B 4.2 23:30:16 19° SSW 23:32:41 44° W 23:36:34 10° NNW
Cosmos 2278 Rocket 2.2 23:27:11 10° SSW 23:32:52 89° ESE 23:38:36 10° NNE
USA 234 3.3 23:27:07 10° ENE 23:33:35 59° SE 23:39:59 10° SW
Cosmos 1825 3.9 23:30:33 10° SW 23:34:00 32° WNW 23:37:30 10° N
Cosmos 1850 Rocket 4.3 23:29:09 10° NNW 23:34:24 61° WSW 23:37:42 23° S
Cosmos 1844 4.2 23:29:41 10° SW 23:35:25 65° WNW 23:41:13 10° NNE
Cosmos 1833 Rocket 2.7 23:30:03 10° NNW 23:35:42 79° ENE 23:39:00 26° SE
Cosmos 1727 Rocket 3.9 23:29:52 10° N 23:36:05 89° E 23:40:11 23° S
Gbstr 26 Del rocket 3.3 23:31:32 10° WNW 23:36:40 74° N 23:40:15 14° E
Cosmos 1812 2.8 23:34:42 10° N 23:38:34 63° ENE 23:40:03 35° SSE
Cosmos 1844 Rocket 3.9 23:41:12 10° WSW 23:46:34 43° NW 23:51:57 10° NNE
Timation 2 Rocket 4.4 23:40:58 10° NW 23:46:43 48° WSW 23:50:18 22° S
Cosmos 2082 Rocket 2.3 23:42:38 10° NNW 23:48:21 72° WSW 23:51:28 28° SSE
NOSS 1 (D) 4.5 23:46:04 10° NW 23:49:14 81° SW 23:49:46 57° SSE
Cosmos 1400 Rocket 4.4 23:56:13 21° E 23:56:45 21° E 23:59:53 10° NE
